Stündliche Wetter Abbotsford

Heute, 4 März, Donnerstag

Zeit Temperatur Niederschläge Wind Luftdruck Luftfeuchtigkeit
00:00 +4°C° 0 mm 2 m/S 751 mmHg 72%
01:00 +4°C° 0 mm 2 m/S 751 mmHg 71%
02:00 +4°C° 0 mm 2 m/S 751 mmHg 70%
03:00 +4°C° 0 mm 2 m/S 751 mmHg 69%
04:00 +4°C° 0 mm 2 m/S 751 mmHg 68%
05:00 +4°C° 0 mm 2 m/S 751 mmHg 67%
06:00 +4°C° 0 mm 2 m/S 751 mmHg 66%
07:00 +4°C° 0 mm 2 m/S 751 mmHg 66%
08:00 +6°C° 0 mm 2 m/S 751 mmHg 63%
09:00 +8°C° 0 mm 2 m/S 752 mmHg 60%
10:00 +10°C° 0 mm 2 m/S 752 mmHg 57%
11:00 +12°C° 0 mm 1 m/S 752 mmHg 55%
12:00 +13°C° 0 mm 1 m/S 752 mmHg 53%
13:00 +15°C° 0 mm 1 m/S 752 mmHg 51%
14:00 +14°C° 0 mm 1 m/S 752 mmHg 55%
15:00 +13°C° 0 mm 2 m/S 752 mmHg 60%
16:00 +13°C° 0 mm 2 m/S 752 mmHg 65%
17:00 +10°C° 1.2 mm 2 m/S 753 mmHg 75%
18:00 +9°C° 1.2 mm 2 m/S 753 mmHg 85%
19:00 +9°C° 1.2 mm 1 m/S 754 mmHg 95%
20:00 +8°C° 1 mm 1 m/S 754 mmHg 95%
21:00 +8°C° 1 mm 1 m/S 754 mmHg 95%
22:00 +7°C° 1 mm 2 m/S 754 mmHg 95%
23:00 +7°C° 0.3 mm 2 m/S 754 mmHg 95%

Morgen, 5 März, Freitag

Zeit Temperatur Niederschläge Wind Luftdruck Luftfeuchtigkeit
00:00 +7°C° 0.3 mm 2 m/S 753 mmHg 95%
01:00 +7°C° 0.3 mm 2 m/S 753 mmHg 94%
02:00 +7°C° 0.3 mm 2 m/S 752 mmHg 94%
03:00 +7°C° 0.3 mm 2 m/S 751 mmHg 94%
04:00 +7°C° 0.3 mm 2 m/S 750 mmHg 94%
05:00 +7°C° 0.4 mm 2 m/S 750 mmHg 94%
06:00 +7°C° 0.4 mm 2 m/S 750 mmHg 93%
07:00 +7°C° 0.4 mm 2 m/S 750 mmHg 93%
08:00 +8°C° 0.7 mm 2 m/S 749 mmHg 92%
09:00 +9°C° 0.7 mm 1 m/S 749 mmHg 92%
10:00 +10°C° 0.7 mm 1 m/S 749 mmHg 91%
11:00 +10°C° 0.5 mm 1 m/S 749 mmHg 91%
12:00 +10°C° 0.5 mm 1 m/S 749 mmHg 91%
13:00 +10°C° 0.5 mm 1 m/S 749 mmHg 91%
14:00 +9°C° 0.8 mm 1 m/S 748 mmHg 91%
15:00 +8°C° 0.8 mm 2 m/S 748 mmHg 92%
16:00 +8°C° 0.8 mm 2 m/S 748 mmHg 92%
17:00 +7°C° 0.3 mm 2 m/S 748 mmHg 92%
18:00 +8°C° 0.3 mm 1 m/S 748 mmHg 93%
19:00 +8°C° 0.3 mm 1 m/S 748 mmHg 93%
20:00 +7°C° 0.3 mm 1 m/S 748 mmHg 92%
21:00 +6°C° 0.3 mm 2 m/S 748 mmHg 92%
22:00 +6°C° 0.3 mm 2 m/S 748 mmHg 91%
23:00 +5°C° 0.1 mm 2 m/S 748 mmHg 90%

übermorgen, 6 März, Samstag

Zeit Temperatur Niederschläge Wind Luftdruck Luftfeuchtigkeit
00:00 +6°C° 0.1 mm 1 m/S 748 mmHg 89%
01:00 +5°C° 0.1 mm 1 m/S 748 mmHg 89%
02:00 +5°C° 0.2 mm 1 m/S 749 mmHg 90%
03:00 +5°C° 0.2 mm 1 m/S 749 mmHg 91%
04:00 +5°C° 0.2 mm 1 m/S 749 mmHg 92%
05:00 +5°C° 1.3 mm 1 m/S 750 mmHg 94%
06:00 +4°C° 1.3 mm 2 m/S 750 mmHg 95%
07:00 +4°C° 1.3 mm 2 m/S 751 mmHg 97%
08:00 +5°C° 0.4 mm 2 m/S 751 mmHg 92%
09:00 +6°C° 0.4 mm 2 m/S 751 mmHg 87%
10:00 +5°C° 0.4 mm 3 m/S 752 mmHg 83%
11:00 +7°C° 0.2 mm 2 m/S 752 mmHg 78%
12:00 +7°C° 0.2 mm 2 m/S 752 mmHg 73%
13:00 +8°C° 0.2 mm 2 m/S 752 mmHg 69%
14:00 +8°C° 0.2 mm 2 m/S 753 mmHg 69%
15:00 +8°C° 0.2 mm 2 m/S 753 mmHg 70%
16:00 +7°C° 0.2 mm 2 m/S 753 mmHg 71%
17:00 +7°C° 0.1 mm 1 m/S 753 mmHg 76%
18:00 +6°C° 0.1 mm 1 m/S 754 mmHg 81%
19:00 +4°C° 0.1 mm 1 m/S 754 mmHg 87%
20:00 +4°C° 0 mm 1 m/S 754 mmHg 87%
21:00 +4°C° 0 mm 1 m/S 755 mmHg 87%
22:00 +4°C° 0 mm 1 m/S 755 mmHg 87%
23:00 +3°C° 0 mm 1 m/S 755 mmHg 86%

7 März, Sonntag

Zeit Temperatur Niederschläge Wind Luftdruck Luftfeuchtigkeit
00:00 +2°C° 0 mm 2 m/S 755 mmHg 86%
01:00 +2°C° 0 mm 2 m/S 755 mmHg 85%
02:00 +2°C° 0 mm 2 m/S 755 mmHg 84%
03:00 +2°C° 0 mm 2 m/S 755 mmHg 82%
04:00 +2°C° 0 mm 2 m/S 755 mmHg 81%
05:00 +2°C° 0 mm 2 m/S 755 mmHg 80%
06:00 +2°C° 0 mm 2 m/S 754 mmHg 79%
07:00 +2°C° 0 mm 2 m/S 754 mmHg 79%
08:00 +4°C° 0.1 mm 2 m/S 754 mmHg 76%
09:00 +6°C° 0.1 mm 1 m/S 755 mmHg 73%
10:00 +7°C° 0.1 mm 1 m/S 755 mmHg 70%
11:00 +7°C° 0.9 mm 1 m/S 755 mmHg 78%
12:00 +6°C° 0.9 mm 1 m/S 755 mmHg 85%
13:00 +5°C° 0.9 mm 2 m/S 756 mmHg 93%
14:00 +6°C° 0.6 mm 1 m/S 756 mmHg 92%
15:00 +6°C° 0.6 mm 1 m/S 756 mmHg 90%
16:00 +6°C° 0.6 mm 1 m/S 756 mmHg 89%
17:00 +5°C° 1.3 mm 1 m/S 757 mmHg 92%
18:00 +5°C° 1.3 mm 1 m/S 757 mmHg 94%
19:00 +4°C° 1.3 mm 1 m/S 758 mmHg 97%
20:00 +3°C° 0.1 mm 1 m/S 758 mmHg 96%
21:00 +3°C° 0.1 mm 1 m/S 759 mmHg 94%
22:00 +2°C° 0.1 mm 1 m/S 760 mmHg 93%
23:00 +2°C° 0 mm 1 m/S 759 mmHg 92%

8 März, Montag

Zeit Temperatur Niederschläge Wind Luftdruck Luftfeuchtigkeit
00:00 +1°C° 0 mm 1 m/S 759 mmHg 91%
01:00 +1°C° 0 mm 1 m/S 759 mmHg 90%
02:00 0°C° 0 mm 1 m/S 759 mmHg 89%
03:00 0°C° 0 mm 1 m/S 759 mmHg 88%
04:00 -2°C° 0 mm 2 m/S 759 mmHg 88%
05:00 -2°C° 0 mm 2 m/S 759 mmHg 87%
06:00 -3°C° 0 mm 2 m/S 759 mmHg 86%
07:00 -3°C° 0 mm 2 m/S 758 mmHg 85%
08:00 -1°C° 0 mm 2 m/S 758 mmHg 80%
09:00 +3°C° 0 mm 2 m/S 757 mmHg 75%
10:00 +5°C° 0 mm 2 m/S 757 mmHg 70%
11:00 +6°C° 0 mm 2 m/S 756 mmHg 65%
12:00 +7°C° 0 mm 2 m/S 755 mmHg 60%
13:00 +9°C° 0 mm 2 m/S 755 mmHg 54%
14:00 +9°C° 0 mm 2 m/S 754 mmHg 55%
15:00 +9°C° 0 mm 2 m/S 754 mmHg 56%
16:00 +9°C° 0 mm 2 m/S 753 mmHg 57%
17:00 +7°C° 0 mm 2 m/S 753 mmHg 67%
18:00 +4°C° 0 mm 2 m/S 753 mmHg 76%
19:00 +2°C° 0 mm 2 m/S 753 mmHg 86%
20:00 +2°C° 0 mm 2 m/S 754 mmHg 85%
21:00 +1°C° 0 mm 2 m/S 754 mmHg 84%
22:00 +1°C° 0 mm 2 m/S 754 mmHg 83%
23:00 +1°C° 0 mm 2 m/S 754 mmHg 81%

9 März, Dienstag

Zeit Temperatur Niederschläge Wind Luftdruck Luftfeuchtigkeit
00:00 -1°C° 0 mm 2 m/S 753 mmHg 79%
01:00 -1°C° 0 mm 2 m/S 753 mmHg 78%
02:00 -1°C° 0 mm 2 m/S 753 mmHg 76%
03:00 -2°C° 0 mm 2 m/S 754 mmHg 75%
04:00 -2°C° 0 mm 2 m/S 754 mmHg 74%
05:00 -2°C° 0 mm 2 m/S 754 mmHg 73%
06:00 -2°C° 0 mm 2 m/S 754 mmHg 73%
07:00 -2°C° 0 mm 2 m/S 754 mmHg 73%
08:00 +3°C° 0 mm 1 m/S 754 mmHg 67%
09:00 +5°C° 0 mm 1 m/S 754 mmHg 60%
10:00 +8°C° 0 mm 1 m/S 754 mmHg 54%
11:00 +9°C° 0 mm 1 m/S 754 mmHg 52%
12:00 +10°C° 0 mm 1 m/S 754 mmHg 49%
13:00 +11°C° 0 mm 1 m/S 754 mmHg 47%
14:00 +11°C° 0 mm 1 m/S 754 mmHg 50%
15:00 +10°C° 0 mm 1 m/S 754 mmHg 53%
16:00 +10°C° 0 mm 1 m/S 754 mmHg 56%
17:00 +7°C° 0 mm 1 m/S 754 mmHg 66%
18:00 +5°C° 0 mm 1 m/S 754 mmHg 75%
19:00 +2°C° 0 mm 0 m/S 755 mmHg 85%
20:00 +2°C° 0 mm 1 m/S 755 mmHg 85%
21:00 +2°C° 0 mm 1 m/S 755 mmHg 86%
22:00 +2°C° 0 mm 1 m/S 756 mmHg 86%
23:00 +1°C° 0 mm 1 m/S 756 mmHg 85%
Mehr zeigen

Wir brauchen deine Erlaubnis

Meteoprog und unser Service Anbieter werden persönliche Daten aufbewahren, so wie Cookies, Geräte Bezeichnung oder ähnliche Technologien von deinem Gerät und Prozess, so wie Persönliche Daten Inhalte und Werbungen, genauso wie social Media und den Verkehr zu analysieren.

  • Aufbewahrung und/oder Zugang zu deiner Geräte Informationen.

    Cookies, Geräte Bezeichnung oder andere Informationen, können aufbewahrt oder Zugang zu deinem Gerät erhalten, für den Grund, der oben angegeben wird.

  • Personalisierte Werbung und Inhalte, Messungen, Einblick in das Publikum und Produkt Entwicklung.

    Werbungen und Inhalte können personalisiert werden, basierend auf ein Profil. Mehr Daten können besser personalisierte Werbungen und Inhalte hinzufügen. Werbung und Inhalte können gezeigt und gemessen werden. Einblicke über das Publikum, welche die Werbung gesehen haben und den Inhalt, können abgeleitet werden. So wie Daten können genutzt werden, um es zu verbessern oder die Benutzer Erfahrung zu verbessern das System und die Software.

Wenn du “Ich stimme zu” klickst, erlaubst du uns, die Cookies zu benutzen die Geräte Bezeichnung, den Web oder ähnliche Technologien zu benutzen. Deine Settings, können in deinem Gerät bei deinem Browser geändert werden.

Für den bestimmten Zweck, berechtigten Interessen beruhen darauf, mehr als auf den Inhalt. Du kannst mehr darüber in unseren Privaten und Cookie Politik lesen.